Weather Roundup
Issued by NWS Springfield, MO

Home | Current Version | Previous Version | Text Only | Print | Product List | Glossary On
Versions: 1 2 3 4 5 6 7 8 9 10 11 12 13 14 15 16 17 18 19 20 21 22 23 24 25 26 27 28 29 30 31 32 33 34 35 36 37 38 39 40 41 42 43 44 45 46 47 48 49 50
572
NZUS99 KSGF 241007
HRRSGF

HOURLY WEATHER
NATIONAL WEATHER SERVICE SPRINGFIELD MO
500 AM CDT TUE MAY 24 2016

......SGF CWA......

CITY           SKY/WX    TMP DP  RH WIND       PRES   REMARKS
SPRINGFIELD    CLOUDY    64  61  90 S9        29.93R
JOPLIN         CLOUDY    65  62  90 SE7       29.90R
WEST PLAINS    PTCLDY    63  56  78 CALM      29.99R
ROLLA          CLOUDY    62  57  83 S7        29.94F
OSAGE BEACH      N/A    N/A N/A N/A SE3       29.95

......SURROUNDING SGF CWA......

CITY           SKY/WX    TMP DP  RH WIND       PRES   REMARKS
CHANUTE        LGT RAIN  67  63  87 SE7       29.88R
PARSONS        CLOUDY    68  64  87 SE3       29.88R
COFFEYVILLE    CLOUDY    67  63  87 SE7       29.86R
EMPORIA        CLOUDY    65  64  97 E3        29.90R
GROVE OK       CLOUDY    70  64  83 SE6       29.90S
ROGERS AR        N/A     63  62  97 SE7       29.94R
SILOAM SPRINGS CLOUDY    64  55  72 SE6       29.93R
HARRISON AR    CLOUDY    65  61  87 SE7       29.96R
NEAR YELLVILLE CLOUDY   N/A N/A N/A CALM      29.93R

......KANSAS AND MISSOURI......

CITY           SKY/WX    TMP DP  RH WIND       PRES   REMARKS
KANSAS CTY INT CLOUDY    63  60  90 S3        29.91R
DOWNTOWN KC    CLOUDY    65  61  87 E5        29.89R
COLUMBIA       CLEAR     62  59  90 S6        29.94S
SEDALIA        CLEAR     61  59  93 SE5       29.94R
ST JOSEPH      MOCLDY    64  61  90 S10       29.88S
ST LOUIS       MOCLDY    69  54  58 S9        29.97S
SPIRIT OF STL  CLOUDY    67  56  67 S6        29.95S
KIRKSVILLE     CLOUDY    63  59  87 W6        29.93S
WICHITA        DRIZZLE   70  67  90 SE9       29.80F
TOPEKA         LGT RAIN  63  60  90 W15G21    29.92R
OLATHE         CLOUDY    62  61  96 S6        29.90R

......TENNESSEE......

CITY           SKY/WX    TMP DP  RH WIND       PRES   REMARKS
MEMPHIS        PTCLDY    68  54  60 S5        30.00R
NASHVILLE      PTCLDY    58  51  78 NE3       30.06R

......ARKANSAS.......

CITY           SKY/WX    TMP DP  RH WIND       PRES   REMARKS
FAYETTEVILLE   CLOUDY    65  65 100 CALM      29.93R
FT SMITH       CLOUDY    68  64  87 NE6       29.91R
LITTLE ROCK    PTCLDY    65  61  87 CALM      29.97R

......OKLAHOMA.......

CITY           SKY/WX    TMP DP  RH WIND       PRES   REMARKS
TULSA          CLOUDY    69  66  90 SE10      29.84R
PONCA CITY     CLOUDY    69  66  90 SE10      29.80R
MCALESTER      CLOUDY    73  67  81 S7        29.87S
OKLAHOMA CITY  CLOUDY    72  70  93 S24G37    29.76F

......IOWA............

CITY           SKY/WX    TMP DP  RH WIND       PRES   REMARKS
DES MOINES     CLOUDY    65  62  90 S3        29.88F
QUAD CITIES    MOCLDY    63  51  65 CALM      29.92R

......ILLINOIS........

CITY           SKY/WX    TMP DP  RH WIND       PRES   REMARKS
QUINCY         MOCLDY    63  54  72 S3        29.94R
CHICAGO        CLOUDY    64  46  52 SW5       29.96R




USA.gov is the U.S. government's official web portal to all federal, state and local government web resources and services.